QPF
0.00 0.00 0.00 0.00 0.01 0.02 0.03 0.04 0.05 0.04 0.03 0.02 0.03 0.03 0.04 0.05 0.04 0.03 0.02 0.02 0.03 0.04 0.06 0.05 0.05 0.04 0.04 0.04 0.04 0.03 0.04 0.05 0.05 0.05 0.06 0.06 0.05 0.05 0.05 0.04 0.03 0.03 0.03
0.00 0.00 0.00 0.00 0.00 0.01 0.02 0.03 0.03 0.03 0.02 0.02 0.02 0.02 0.04 0.06 0.04 0.03 0.03 0.02 0.02 0.02 0.03 0.04 0.04 0.04 0.04 0.04 0.03 0.03 0.03 0.03 0.05 0.05 0.05 0.05 0.05 0.03 0.03 0.03 0.04 0.05 0.05
0.00 0.00 0.00 0.00 0.00 0.00 0.01 0.02 0.03 0.03 0.02 0.02 0.02 0.03 0.04 0.04 0.03 0.02 0.03 0.02 0.02 0.02 0.02 0.03 0.03 0.04 0.04 0.03 0.03 0.03 0.04 0.04 0.04 0.04 0.05 0.06 0.06 0.05 0.04 0.03 0.03 0.04 0.05
0.00 0.00 0.00 0.00 0.00 0.00 0.01 0.02 0.02 0.02 0.02 0.02 0.03 0.03 0.04 0.03 0.02 0.03 0.03 0.02 0.02 0.01 0.01 0.03 0.03 0.03 0.02 0.03 0.02 0.03 0.04 0.04 0.04 0.05 0.05 0.06 0.06 0.06 0.06 0.04 0.03 0.04 0.05
0.00 0.00 0.00 0.00 0.00 0.01 0.02 0.02 0.01 0.01 0.02 0.03 0.03 0.03 0.02 0.02 0.02 0.02 0.02 0.03 0.03 0.02 0.01 0.01 0.03 0.03 0.03 0.03 0.03 0.04 0.04 0.04 0.05 0.06 0.06 0.06 0.06 0.06 0.06 0.05 0.06 0.06 0.05
0.00 0.00 0.00 0.00 0.01 0.01 0.01 0.01 0.01 0.01 0.02 0.03 0.03 0.03 0.02 0.01 0.01 0.01 0.02 0.02 0.02 0.02 0.01 0.01 0.02 0.03 0.04 0.03 0.03 0.03 0.04 0.03 0.04 0.06 0.06 0.07 0.07 0.07 0.07 0.07 0.07 0.07 0.07
0.00 0.00 0.01 0.01 0.01 0.01 0.01 0.01 0.01 0.01 0.02 0.03 0.04 0.03 0.02 0.01 0.02 0.02 0.02 0.02 0.02 0.02 0.02 0.01 0.02 0.03 0.04 0.03 0.02 0.02 0.02 0.03 0.04 0.05 0.05 0.06 0.07 0.06 0.05 0.05 0.05 0.05 0.06
0.02 0.02 0.01 0.02 0.01 0.01 0.01 0.00 0.00 0.01 0.01 0.02 0.03 0.04 0.03 0.02 0.02 0.02 0.02 0.02 0.02 0.02 0.01 0.02 0.02 0.02 0.02 0.02 0.03 0.03 0.02 0.03 0.03 0.03 0.04 0.04 0.04 0.05 0.05 0.05 0.04 0.04 0.05
0.02 0.03 0.02 0.01 0.00 0.00 0.00 0.00 0.00 0.01 0.01 0.02 0.04 0.05 0.04 0.03 0.02 0.02 0.01 0.01 0.01 0.01 0.01 0.01 0.01 0.01 0.01 0.03 0.04 0.03 0.03 0.03 0.03 0.02 0.03 0.04 0.04 0.05 0.05 0.05 0.06 0.07 0.07
0.01 0.02 0.02 0.01 0.00 0.00 0.00 0.00 0.00 0.00 0.01 0.01 0.02 0.04 0.04 0.03 0.03 0.02 0.01 0.01 0.01 0.01 0.01 0.01 0.01 0.01 0.01 0.02 0.03 0.03 0.04 0.04 0.04 0.05 0.05 0.06 0.06 0.06 0.06 0.06 0.07 0.08 0.07
0.01 0.01 0.01 0.00 0.00 0.00 0.00 0.00 0.01 0.00 0.01 0.02 0.03 0.02 0.01 0.01 0.01 0.01 0.01 0.01 0.01 0.01 0.02 0.02 0.02 0.02 0.03 0.04 0.03 0.03 0.03 0.03 0.06 0.08 0.08 0.08 0.07 0.08 0.07 0.09 0.09 0.07 0.05
0.01 0.00 0.00 0.00 0.00 0.01 0.01 0.01 0.01 0.01 0.01 0.02 0.02 0.02 0.02 0.01 0.01 0.01 0.00 0.00 0.01 0.02 0.02 0.02 0.02 0.02 0.04 0.04 0.04 0.03 0.03 0.04 0.04 0.06 0.06 0.06 0.06 0.08 0.08 0.08 0.06 0.05 0.04
0.00 0.00 0.00 0.01 0.01 0.01 0.01 0.01 0.02 0.02 0.02 0.01 0.01 0.02 0.03 0.03 0.02 0.02 0.02 0.01 0.01 0.02 0.02 0.03 0.03 0.03 0.03 0.03 0.03 0.03 0.04 0.04 0.05 0.05 0.05 0.05 0.07 0.07 0.07 0.05 0.04 0.04 0.04
0.01 0.01 0.01 0.03 0.03 0.02 0.02 0.02 0.03 0.02 0.01 0.02 0.02 0.03 0.04 0.04 0.03 0.02 0.03 0.02 0.02 0.03 0.02 0.02 0.02 0.03 0.03 0.02 0.03 0.03 0.03 0.03 0.04 0.04 0.04 0.05 0.06 0.05 0.05 0.05 0.05 0.05 0.05
0.01 0.01 0.03 0.04 0.05 0.04 0.02 0.02 0.02 0.02 0.02 0.02 0.02 0.02 0.04 0.05 0.04 0.04 0.03 0.02 0.01 0.01 0.01 0.01 0.02 0.02 0.02 0.01 0.02 0.02 0.02 0.03 0.03 0.04 0.04 0.04 0.04 0.04 0.04 0.05 0.05 0.05 0.05
0.01 0.01 0.02 0.02 0.03 0.03 0.02 0.02 0.02 0.02 0.02 0.02 0.01 0.01 0.02 0.03 0.04 0.03 0.02 0.01 0.01 0.01 0.01 0.02 0.02 0.02 0.01 0.01 0.01 0.01 0.02 0.03 0.03 0.03 0.04 0.04 0.03 0.03 0.04 0.04 0.04 0.04 0.04
0.01 0.01 0.00 0.01 0.01 0.01 0.01 0.01 0.02 0.01 0.01 0.01 0.01 0.02 0.03 0.03 0.02 0.01 0.01 0.01 0.01 0.01 0.02 0.02 0.01 0.01 0.01 0.01 0.01 0.01 0.02 0.03 0.03 0.05 0.05 0.04 0.03 0.03 0.03 0.04 0.04 0.03 0.03
0.01 0.01 0.01 0.01 0.01 0.01 0.00 0.00 0.01 0.01 0.01 0.01 0.01 0.02 0.03 0.02 0.01 0.01 0.01 0.01 0.02 0.02 0.02 0.01 0.01 0.01 0.01 0.01 0.01 0.02 0.02 0.02 0.02 0.02 0.03 0.03 0.03 0.02 0.02 0.03 0.04 0.04 0.04
0.02 0.01 0.01 0.01 0.00 0.00 0.00 0.00 0.00 0.01 0.01 0.01 0.02 0.02 0.02 0.01 0.01 0.01 0.01 0.01 0.01 0.01 0.02 0.01 0.01 0.01 0.02 0.03 0.02 0.02 0.02 0.02 0.01 0.01 0.01 0.02 0.03 0.03 0.02 0.03 0.03 0.04 0.04
0.01 0.01 0.01 0.00 0.00 0.00 0.00 0.01 0.01 0.01 0.01 0.01 0.01 0.01 0.02 0.01 0.01 0.01 0.01 0.01 0.01 0.01 0.02 0.02 0.02 0.02 0.03 0.02 0.02 0.01 0.01 0.01 0.01 0.02 0.01 0.01 0.02 0.03 0.03 0.04 0.04 0.04 0.04
0.01 0.01 0.01 0.00 0.01 0.01 0.01 0.01 0.01 0.01 0.01 0.01 0.01 0.01 0.02 0.01 0.01 0.01 0.01 0.01 0.01 0.01 0.02 0.02 0.03 0.02 0.02 0.01 0.01 0.01 0.00 0.01 0.01 0.01 0.01 0.01 0.01 0.01 0.02 0.04 0.06 0.08 0.06
0.02 0.02 0.02 0.01 0.01 0.01 0.01 0.01 0.01 0.02 0.01 0.01 0.01 0.01 0.02 0.01 0.01 0.02 0.02 0.02 0.01 0.01 0.01 0.01 0.02 0.02 0.02 0.02 0.02 0.01 0.01 0.00 0.01 0.01 0.02 0.01 0.01 0.01 0.01 0.02 0.03 0.05 0.05
0.05 0.05 0.03 0.01 0.01 0.01 0.01 0.01 0.01 0.02 0.02 0.02 0.02 0.02 0.02 0.02 0.01 0.02 0.01 0.02 0.02 0.02 0.02 0.01 0.01 0.02 0.02 0.03 0.04 0.03 0.02 0.01 0.01 0.01 0.01 0.00 0.01 0.01 0.02 0.02 0.02 0.02 0.03
0.02 0.03 0.02 0.02 0.02 0.01 0.01 0.01 0.01 0.01 0.01 0.02 0.02 0.02 0.02 0.02 0.02 0.02 0.03 0.03 0.03 0.03 0.03 0.02 0.02 0.02 0.02 0.02 0.02 0.04 0.04 0.03 0.03 0.01 0.00 0.00 0.00 0.01 0.02 0.03 0.02 0.02 0.03
0.01 0.01 0.01 0.01 0.01 0.01 0.01 0.01 0.01 0.01 0.01 0.02 0.02 0.02 0.02 0.02 0.02 0.03 0.03 0.03 0.03 0.02 0.03 0.03 0.03 0.03 0.03 0.03 0.03 0.03 0.03 0.03 0.05 0.04 0.01 0.00 0.00 0.01 0.01 0.01 0.01 0.02 0.02
0.01 0.01 0.01 0.01 0.01 0.01 0.01 0.01 0.01 0.02 0.02 0.02 0.02 0.02 0.01 0.01 0.02 0.02 0.01 0.01 0.02 0.02 0.02 0.02 0.02 0.02 0.02 0.02 0.02 0.02 0.02 0.03 0.05 0.05 0.03 0.02 0.01 0.02 0.02 0.02 0.02 0.01 0.02
MSLP
1008.21 1008.40 1008.61 1008.82 1008.99 1009.12 1009.21 1009.28 1009.37 1009.51 1009.72 1010.02 1010.39 1010.80 1011.20 1011.55 1011.78 1011.89 1011.85 1011.69 1011.44 1011.14 1010.82 1010.49 1010.14 1009.74 1009.25 1008.63 1007.86 1006.94 1005.90 1004.80 1003.72 1002.73 1001.87 1001.17 1000.62 1000.16 999.74 999.31 998.83 998.31 997.78
1009.00 1009.23 1009.46 1009.66 1009.80 1009.88 1009.92 1009.95 1010.01 1010.14 1010.35 1010.66 1011.04 1011.46 1011.86 1012.19 1012.42 1012.50 1012.45 1012.29 1012.04 1011.76 1011.46 1011.17 1010.86 1010.52 1010.10 1009.55 1008.85 1007.99 1007.00 1005.94 1004.86 1003.85 1002.96 1002.22 1001.63 1001.17 1000.79 1000.44 1000.10 999.74 999.39
1009.92 1010.22 1010.48 1010.66 1010.76 1010.79 1010.77 1010.75 1010.77 1010.88 1011.09 1011.39 1011.78 1012.19 1012.58 1012.89 1013.09 1013.15 1013.08 1012.89 1012.64 1012.36 1012.08 1011.81 1011.55 1011.27 1010.92 1010.45 1009.84 1009.08 1008.18 1007.19 1006.17 1005.18 1004.28 1003.51 1002.88 1002.38 1001.96 1001.61 1001.27 1000.94 1000.62
1010.88 1011.25 1011.53 1011.71 1011.77 1011.75 1011.68 1011.61 1011.60 1011.69 1011.89 1012.19 1012.57 1012.98 1013.35 1013.64 1013.81 1013.83 1013.73 1013.52 1013.25 1012.96 1012.69 1012.44 1012.20 1011.96 1011.67 1011.29 1010.78 1010.13 1009.34 1008.46 1007.53 1006.61 1005.75 1004.98 1004.32 1003.75 1003.26 1002.83 1002.41 1002.01 1001.62
1011.75 1012.19 1012.51 1012.69 1012.73 1012.67 1012.56 1012.46 1012.43 1012.51 1012.71 1013.01 1013.39 1013.79 1014.15 1014.42 1014.55 1014.54 1014.41 1014.17 1013.88 1013.57 1013.28 1013.03 1012.81 1012.59 1012.34 1012.02 1011.60 1011.06 1010.40 1009.64 1008.83 1008.01 1007.22 1006.48 1005.81 1005.20 1004.64 1004.11 1003.58 1003.06 1002.55
1012.46 1012.96 1013.32 1013.51 1013.55 1013.48 1013.35 1013.24 1013.20 1013.29 1013.49 1013.81 1014.19 1014.58 1014.93 1015.17 1015.28 1015.25 1015.08 1014.82 1014.50 1014.18 1013.87 1013.60 1013.37 1013.15 1012.92 1012.63 1012.27 1011.81 1011.25 1010.62 1009.94 1009.23 1008.54 1007.86 1007.22 1006.61 1006.01 1005.40 1004.78 1004.15 1003.52
1012.98 1013.53 1013.92 1014.14 1014.19 1014.12 1014.00 1013.90 1013.88 1013.98 1014.20 1014.53 1014.91 1015.30 1015.64 1015.86 1015.95 1015.90 1015.72 1015.44 1015.11 1014.77 1014.45 1014.15 1013.89 1013.65 1013.39 1013.10 1012.76 1012.34 1011.86 1011.33 1010.75 1010.16 1009.57 1008.99 1008.42 1007.84 1007.25 1006.62 1005.95 1005.26 1004.54
1013.29 1013.88 1014.31 1014.55 1014.63 1014.59 1014.50 1014.43 1014.44 1014.56 1014.80 1015.14 1015.53 1015.91 1016.23 1016.45 1016.53 1016.47 1016.29 1016.02 1015.69 1015.34 1015.00 1014.68 1014.38 1014.09 1013.79 1013.46 1013.09 1012.68 1012.22 1011.74 1011.25 1010.75 1010.26 1009.78 1009.30 1008.79 1008.25 1007.66 1007.01 1006.31 1005.57
1013.44 1014.05 1014.51 1014.79 1014.90 1014.90 1014.86 1014.83 1014.88 1015.04 1015.30 1015.64 1016.03 1016.40 1016.71 1016.92 1016.99 1016.94 1016.78 1016.53 1016.22 1015.89 1015.54 1015.20 1014.86 1014.51 1014.15 1013.75 1013.32 1012.87 1012.40 1011.92 1011.46 1011.03 1010.62 1010.22 1009.83 1009.41 1008.95 1008.44 1007.85 1007.20 1006.49
1013.45 1014.08 1014.56 1014.88 1015.04 1015.10 1015.11 1015.14 1015.23 1015.42 1015.70 1016.05 1016.43 1016.78 1017.08 1017.27 1017.35 1017.32 1017.19 1016.97 1016.70 1016.40 1016.07 1015.73 1015.35 1014.95 1014.51 1014.03 1013.52 1013.00 1012.47 1011.97 1011.51 1011.09 1010.72 1010.38 1010.06 1009.73 1009.36 1008.93 1008.42 1007.85 1007.20
1013.35 1014.00 1014.50 1014.86 1015.08 1015.20 1015.28 1015.38 1015.53 1015.75 1016.05 1016.40 1016.76 1017.10 1017.37 1017.55 1017.64 1017.63 1017.53 1017.37 1017.15 1016.89 1016.59 1016.25 1015.86 1015.42 1014.91 1014.36 1013.77 1013.16 1012.57 1012.01 1011.50 1011.07 1010.70 1010.39 1010.10 1009.82 1009.51 1009.15 1008.72 1008.22 1007.64
1013.18 1013.83 1014.36 1014.76 1015.05 1015.25 1015.41 1015.58 1015.79 1016.06 1016.37 1016.72 1017.06 1017.38 1017.62 1017.80 1017.89 1017.90 1017.84 1017.72 1017.56 1017.35 1017.10 1016.78 1016.38 1015.92 1015.37 1014.76 1014.10 1013.42 1012.76 1012.14 1011.59 1011.11 1010.72 1010.39 1010.10 1009.82 1009.53 1009.20 1008.80 1008.34 1007.80
1012.92 1013.59 1014.15 1014.61 1014.96 1015.25 1015.50 1015.76 1016.04 1016.36 1016.70 1017.04 1017.37 1017.66 1017.89 1018.04 1018.13 1018.15 1018.13 1018.06 1017.94 1017.79 1017.57 1017.28 1016.90 1016.43 1015.86 1015.22 1014.52 1013.80 1013.09 1012.42 1011.82 1011.31 1010.86 1010.49 1010.16 1009.85 1009.53 1009.17 1008.77 1008.29 1007.75
1012.60 1013.29 1013.89 1014.40 1014.83 1015.21 1015.57 1015.92 1016.28 1016.66 1017.03 1017.39 1017.71 1017.98 1018.18 1018.32 1018.40 1018.42 1018.42 1018.37 1018.30 1018.18 1017.99 1017.73 1017.38 1016.92 1016.36 1015.71 1015.01 1014.27 1013.54 1012.86 1012.22 1011.67 1011.18 1010.75 1010.36 1009.98 1009.59 1009.17 1008.70 1008.17 1007.59
1012.22 1012.93 1013.57 1014.15 1014.67 1015.15 1015.62 1016.07 1016.53 1016.97 1017.39 1017.76 1018.08 1018.34 1018.52 1018.63 1018.69 1018.72 1018.71 1018.68 1018.62 1018.52 1018.36 1018.12 1017.78 1017.34 1016.80 1016.18 1015.49 1014.78 1014.06 1013.38 1012.74 1012.16 1011.63 1011.14 1010.68 1010.22 1009.74 1009.23 1008.67 1008.06 1007.41
1011.81 1012.55 1013.24 1013.89 1014.50 1015.08 1015.66 1016.22 1016.76 1017.28 1017.75 1018.15 1018.48 1018.72 1018.89 1018.98 1019.02 1019.02 1019.00 1018.96 1018.90 1018.80 1018.65 1018.42 1018.10 1017.68 1017.17 1016.58 1015.93 1015.26 1014.57 1013.91 1013.28 1012.69 1012.14 1011.61 1011.08 1010.54 1009.98 1009.37 1008.71 1008.01 1007.27
1011.40 1012.18 1012.92 1013.64 1014.34 1015.02 1015.70 1016.36 1017.00 1017.58 1018.10 1018.54 1018.87 1019.11 1019.26 1019.33 1019.35 1019.33 1019.29 1019.23 1019.15 1019.04 1018.88 1018.65 1018.34 1017.94 1017.46 1016.90 1016.29 1015.66 1015.01 1014.38 1013.77 1013.19 1012.62 1012.06 1011.48 1010.88 1010.24 1009.55 1008.81 1008.03 1007.22
1011.05 1011.86 1012.66 1013.44 1014.22 1014.99 1015.76 1016.51 1017.22 1017.86 1018.42 1018.88 1019.23 1019.47 1019.61 1019.66 1019.66 1019.62 1019.55 1019.47 1019.37 1019.24 1019.07 1018.83 1018.52 1018.14 1017.67 1017.14 1016.57 1015.97 1015.36 1014.75 1014.16 1013.58 1013.00 1012.42 1011.81 1011.16 1010.47 1009.73 1008.94 1008.11 1007.25
1010.78 1011.63 1012.47 1013.31 1014.15 1015.00 1015.83 1016.64 1017.40 1018.09 1018.68 1019.16 1019.52 1019.75 1019.89 1019.93 1019.92 1019.86 1019.78 1019.68 1019.57 1019.43 1019.24 1019.00 1018.70 1018.32 1017.87 1017.36 1016.81 1016.22 1015.63 1015.03 1014.44 1013.85 1013.26 1012.65 1012.02 1011.35 1010.64 1009.88 1009.08 1008.24 1007.37
1010.62 1011.50 1012.39 1013.27 1014.15 1015.04 1015.91 1016.76 1017.54 1018.25 1018.85 1019.33 1019.69 1019.93 1020.06 1020.10 1020.09 1020.03 1019.96 1019.86 1019.75 1019.61 1019.43 1019.20 1018.90 1018.53 1018.10 1017.60 1017.05 1016.47 1015.87 1015.26 1014.65 1014.04 1013.42 1012.79 1012.14 1011.46 1010.74 1009.99 1009.21 1008.39 1007.54
1010.56 1011.48 1012.38 1013.29 1014.20 1015.10 1015.98 1016.83 1017.62 1018.32 1018.91 1019.38 1019.73 1019.96 1020.10 1020.15 1020.15 1020.11 1020.06 1019.98 1019.90 1019.78 1019.63 1019.42 1019.15 1018.80 1018.38 1017.90 1017.36 1016.77 1016.15 1015.51 1014.86 1014.21 1013.55 1012.88 1012.21 1011.52 1010.82 1010.09 1009.34 1008.57 1007.77
1010.59 1011.53 1012.45 1013.36 1014.27 1015.16 1016.03 1016.85 1017.61 1018.27 1018.83 1019.28 1019.62 1019.85 1019.99 1020.06 1020.09 1020.08 1020.07 1020.04 1019.99 1019.92 1019.82 1019.65 1019.42 1019.12 1018.73 1018.26 1017.73 1017.13 1016.49 1015.81 1015.11 1014.41 1013.70 1012.99 1012.30 1011.60 1010.91 1010.22 1009.52 1008.80 1008.07
1010.69 1011.62 1012.54 1013.45 1014.33 1015.20 1016.02 1016.80 1017.51 1018.12 1018.64 1019.06 1019.37 1019.60 1019.75 1019.84 1019.90 1019.94 1019.98 1020.00 1020.02 1020.01 1019.97 1019.87 1019.70 1019.44 1019.10 1018.66 1018.14 1017.54 1016.88 1016.17 1015.42 1014.67 1013.91 1013.17 1012.44 1011.74 1011.06 1010.40 1009.74 1009.09 1008.43
1010.81 1011.74 1012.65 1013.53 1014.38 1015.20 1015.97 1016.69 1017.33 1017.89 1018.35 1018.73 1019.02 1019.24 1019.39 1019.51 1019.61 1019.70 1019.78 1019.87 1019.95 1020.01 1020.04 1020.01 1019.90 1019.71 1019.42 1019.02 1018.53 1017.94 1017.27 1016.54 1015.77 1014.98 1014.19 1013.41 1012.66 1011.95 1011.28 1010.65 1010.04 1009.45 1008.85
1010.94 1011.85 1012.73 1013.58 1014.40 1015.16 1015.88 1016.53 1017.10 1017.60 1018.01 1018.34 1018.61 1018.81 1018.98 1019.11 1019.24 1019.37 1019.51 1019.65 1019.79 1019.91 1020.00 1020.03 1019.99 1019.85 1019.62 1019.27 1018.82 1018.26 1017.61 1016.88 1016.10 1015.30 1014.48 1013.69 1012.93 1012.22 1011.57 1010.96 1010.39 1009.85 1009.31
1011.06 1011.94 1012.80 1013.62 1014.39 1015.11 1015.76 1016.35 1016.86 1017.29 1017.65 1017.95 1018.18 1018.38 1018.54 1018.69 1018.84 1019.00 1019.17 1019.35 1019.53 1019.69 1019.83 1019.90 1019.91 1019.83 1019.64 1019.34 1018.93 1018.41 1017.79 1017.09 1016.33 1015.54 1014.74 1013.96 1013.21 1012.52 1011.88 1011.31 1010.78 1010.28 1009.78
Thickness
5816 5814 5811 5808 5804 5800 5797 5794 5792 5789 5788 5785 5783 5781 5780 5779 5778 5778 5776 5775 5774 5773 5772 5772 5770 5769 5768 5766 5767 5766 5765 5764 5765 5763 5761 5762 5764 5762 5761 5760 5760 5759 5757
5813 5810 5808 5805 5802 5799 5796 5794 5791 5789 5787 5785 5782 5780 5779 5778 5777 5776 5773 5772 5771 5770 5771 5769 5769 5767 5765 5764 5763 5762 5762 5763 5763 5759 5756 5752 5753 5755 5758 5756 5754 5754 5753
5812 5809 5806 5803 5801 5798 5795 5794 5791 5788 5787 5785 5783 5780 5777 5777 5775 5773 5772 5770 5769 5768 5767 5766 5766 5764 5764 5763 5761 5760 5758 5757 5759 5759 5755 5749 5745 5747 5751 5750 5750 5748 5747
5814 5810 5806 5802 5800 5798 5796 5793 5789 5787 5785 5783 5780 5777 5773 5771 5770 5770 5769 5768 5766 5766 5765 5763 5762 5761 5762 5760 5760 5760 5758 5755 5754 5755 5753 5751 5748 5742 5740 5743 5744 5743 5742
5815 5810 5807 5803 5801 5799 5796 5792 5787 5784 5782 5780 5778 5775 5773 5771 5771 5769 5766 5765 5765 5763 5762 5761 5759 5758 5758 5757 5755 5754 5754 5754 5751 5750 5749 5746 5744 5743 5738 5733 5735 5737 5738
5815 5811 5809 5804 5800 5799 5795 5791 5785 5781 5780 5778 5776 5772 5769 5767 5766 5764 5763 5763 5763 5761 5759 5758 5756 5755 5754 5752 5751 5750 5750 5748 5746 5745 5745 5742 5739 5737 5735 5731 5729 5729 5731
5813 5809 5805 5801 5798 5795 5792 5789 5784 5779 5778 5776 5773 5771 5768 5766 5763 5762 5761 5759 5759 5758 5755 5755 5752 5750 5749 5748 5747 5745 5744 5743 5741 5739 5739 5739 5737 5736 5733 5728 5726 5724 5725
5813 5809 5806 5801 5797 5793 5790 5786 5782 5778 5776 5773 5771 5769 5766 5765 5763 5760 5759 5757 5756 5754 5752 5750 5748 5746 5745 5744 5742 5742 5740 5738 5736 5736 5733 5733 5733 5732 5729 5725 5721 5718 5718
5811 5808 5805 5801 5797 5793 5790 5786 5781 5777 5774 5771 5769 5766 5763 5761 5758 5757 5755 5754 5752 5751 5748 5746 5744 5742 5740 5738 5737 5736 5734 5733 5732 5731 5729 5728 5728 5726 5724 5722 5719 5713 5709
5809 5806 5803 5800 5797 5794 5790 5786 5781 5776 5773 5770 5767 5765 5761 5758 5755 5754 5750 5749 5747 5744 5743 5741 5738 5736 5735 5733 5731 5731 5729 5727 5726 5724 5722 5720 5721 5720 5718 5716 5714 5712 5708
5807 5804 5801 5798 5796 5793 5789 5783 5779 5774 5771 5768 5765 5762 5759 5757 5754 5750 5748 5745 5742 5740 5737 5735 5733 5731 5730 5728 5726 5725 5723 5721 5719 5718 5716 5714 5713 5712 5711 5709 5707 5705 5704
5807 5804 5800 5796 5792 5788 5784 5780 5777 5773 5769 5766 5762 5759 5756 5754 5751 5747 5744 5742 5738 5736 5733 5730 5728 5726 5724 5722 5721 5719 5717 5715 5713 5712 5709 5708 5707 5704 5703 5702 5700 5699 5697
5802 5800 5796 5791 5787 5783 5780 5777 5774 5771 5768 5764 5760 5756 5753 5750 5747 5743 5740 5737 5734 5731 5728 5725 5722 5720 5718 5716 5715 5712 5710 5708 5707 5705 5703 5702 5700 5697 5697 5695 5694 5693 5692
5796 5793 5790 5786 5782 5779 5776 5773 5770 5768 5765 5760 5757 5753 5749 5746 5742 5739 5735 5732 5729 5726 5723 5720 5717 5715 5713 5710 5708 5706 5704 5702 5700 5699 5697 5695 5693 5691 5689 5688 5686 5685 5683
5791 5788 5785 5782 5779 5775 5772 5770 5767 5764 5761 5756 5752 5748 5745 5741 5737 5733 5729 5726 5724 5722 5718 5715 5712 5710 5708 5704 5701 5699 5699 5696 5694 5692 5690 5688 5685 5682 5681 5681 5679 5677 5676
5787 5786 5783 5779 5775 5772 5769 5766 5763 5760 5756 5752 5748 5744 5740 5736 5731 5728 5725 5721 5718 5715 5712 5709 5706 5704 5702 5694 5691 5690 5692 5689 5687 5685 5683 5682 5679 5676 5673 5670 5669 5668 5668
5786 5783 5780 5777 5773 5770 5767 5762 5759 5756 5752 5748 5744 5740 5736 5731 5727 5725 5720 5716 5713 5710 5706 5703 5700 5696 5691 5685 5683 5682 5684 5683 5680 5678 5676 5676 5674 5669 5667 5664 5662 5661 5659
5783 5781 5779 5776 5773 5770 5765 5761 5757 5752 5747 5743 5739 5736 5731 5727 5723 5719 5714 5711 5708 5704 5700 5696 5693 5689 5684 5678 5676 5675 5677 5676 5673 5671 5668 5665 5662 5661 5657 5657 5657 5656 5655
5781 5779 5778 5776 5771 5766 5762 5757 5752 5748 5743 5739 5735 5732 5728 5723 5718 5714 5710 5706 5702 5698 5694 5690 5686 5682 5677 5671 5668 5666 5671 5669 5666 5663 5659 5656 5653 5647 5646 5647 5648 5647 5647
5777 5775 5774 5771 5765 5761 5757 5752 5748 5743 5739 5735 5731 5727 5723 5718 5714 5709 5704 5701 5697 5693 5689 5685 5681 5676 5672 5664 5661 5658 5665 5661 5658 5654 5651 5645 5641 5637 5635 5638 5638 5637 5637
5770 5769 5766 5762 5758 5755 5751 5746 5743 5738 5735 5731 5726 5722 5718 5713 5709 5704 5699 5695 5691 5686 5682 5678 5675 5670 5665 5658 5653 5649 5652 5651 5649 5647 5644 5639 5631 5628 5626 5626 5627 5626 5625
5762 5761 5757 5753 5751 5748 5744 5739 5735 5733 5729 5725 5720 5715 5711 5709 5705 5698 5693 5689 5685 5681 5676 5672 5669 5666 5660 5652 5646 5642 5639 5637 5638 5636 5635 5630 5623 5620 5619 5619 5617 5616 5617
5755 5754 5750 5745 5742 5740 5737 5732 5728 5726 5722 5717 5713 5709 5705 5701 5698 5693 5688 5684 5680 5678 5673 5669 5664 5660 5656 5649 5641 5636 5633 5629 5628 5627 5622 5619 5616 5614 5614 5612 5610 5610 5613
5747 5746 5742 5738 5734 5732 5729 5725 5722 5719 5715 5710 5706 5703 5698 5695 5691 5687 5684 5680 5675 5670 5666 5663 5658 5655 5650 5644 5638 5634 5631 5625 5623 5621 5617 5612 5610 5609 5607 5607 5607 5607 5606
5740 5738 5734 5730 5727 5725 5722 5719 5716 5712 5708 5704 5700 5696 5693 5690 5685 5680 5676 5673 5666 5662 5657 5656 5652 5647 5642 5633 5625 5623 5623 5620 5616 5612 5612 5612 5610 5608 5605 5604 5602 5601 5599
5732 5730 5727 5724 5720 5717 5714 5712 5709 5705 5701 5697 5694 5692 5689 5684 5680 5675 5670 5660 5657 5651 5646 5641 5639 5637 5630 5624 5619 5615 5611 5608 5605 5605 5607 5606 5605 5603 5601 5598 5596 5594 5592